Location: Newark
(13.6797°N, 8.5297°E)
Time: 15:22:59
(UTC+00:00)

Courier 1B Rocket - Pass Details

Date: 25 January 2020
Orbit: 920 x 1202 km, 28.2° (Epoch: 25 February)

Event Time Altitude Azimuth Distance (km) Brightness Sun altitude
Rises 12:42:26 0° 293° (WNW) 3,868 8.2 53.7°
Reaches altitude 10° 12:45:57 10° 308° (NW) 2,858 7.5 53.3°
Maximum altitude 12:51:12 22° 358° (N) 2,017 6.6 52.7°
Drops below altitude 10° 12:56:12 10° 48° (NE) 2,707 7.1 52.1°
Sets 12:59:25 0° 63° (ENE) 3,615 7.7 51.7°
